[[{"header":{"parameterUnit":"m.s-1","parameterCategory":1,"la1":30.2991,"la2":30.254,"lo1":-89.0895,"lo2":-89.0444,"dy":0.0017,"dx":0.0017,"nx":28,"ny":28,"refTime":"2024-06-13T09:00:00:Z","depth":0,"parameterNumber":2,"parameterNumberName":"U-component_of_WINDS"},"data":[0,0,0,0,0,0,0,0,0,0,0,0,0,0,0,0,0,0,0,0,0,0,0,0,0,0,0,0,0,0,0,0,0,0,0,0,0,0,0,0,0,0,0,0,0,0,0,0,0,0,0,0,0,0,0,0,0,0,-1.7408,-1.7407,0,-1.7364,-1.7364,-1.7363,-1.7342,-1.7342,-1.7342,-1.7342,-1.7296,-1.7295,-1.7294,0,0,0,0,0,0,0,0,0,0,0,0,0,-1.7473,-1.7472,-1.7408,-1.7407,-1.7407,-1.7364,-1.7364,-1.7363,-1.7342,-1.7342,-1.7342,-1.7342,-1.7297,-1.7295,-1.7294,0,0,0,0,0,0,0,0,0,0,0,0,0,-1.7438,-1.7471,-1.7408,-1.7391,-1.7389,-1.7364,-1.7364,-1.7363,-1.7342,-1.7342,-1.7342,-1.7342,-1.7297,-1.7296,-1.7294,-1.7283,0,0,-1.7288,-1.7287,0,0,0,0,0,0,0,0,-1.744,-1.7436,-1.7394,-1.7392,-1.739,-1.7358,-1.737,-1.7336,-1.7342,-1.736,-1.7342,-1.7342,-1.7317,-1.7314,-1.7305,-1.728,-1.7278,-1.7288,-1.7287,-1.7286,-1.7286,0,0,0,0,0,0,0,-1.7443,-1.7438,-1.739,-1.7393,-1.7391,-1.7386,-1.7381,-1.7363,-1.7339,-1.7358,-1.7356,-1.7352,-1.7316,-1.7307,-1.7304,-1.7278,-1.7288,-1.7287,-1.7285,-1.7285,-1.7244,-1.7244,0,0,0,0,0,0,-1.7448,-1.744,-1.7392,-1.7389,-1.7416,-1.7384,-1.7379,-1.7368,-1.7339,-1.7334,-1.7352,-1.7351,-1.731,-1.7306,-1.7302,-1.7289,-1.7286,-1.7285,-1.7283,-1.7244,-1.7244,-1.7244,0,0,0,0,0,0,-1.7449,-1.7444,-1.7394,-1.7414,-1.7407,-1.7383,-1.7372,-1.7368,-1.7359,-1.7334,-1.733,-1.7347,-1.731,-1.7305,-1.7288,-1.7287,-1.7284,-1.7282,-1.7244,-1.7244,-1.7244,-1.726,0,0,0,0,0,0,-1.7451,-1.7444,-1.744,-1.7414,-1.7406,-1.738,-1.7371,-1.7367,-1.7356,-1.7354,-1.7329,-1.7325,-1.731,-1.7291,-1.7286,-1.7284,-1.7281,-1.7244,-1.7244,-1.7244,-1.726,-1.7261,-1.7262,0,0,0,0,0,-1.7454,-1.7445,-1.7439,-1.7434,-1.74,-1.738,-1.7375,-1.7358,-1.7356,-1.7351,-1.7336,-1.7325,-1.7288,-1.7289,-1.7284,-1.7281,-1.7244,-1.7244,-1.7244,-1.7259,-1.7261,-1.7262,0,0,0,0,0,0,-1.747,-1.7441,-1.7435,-1.7418,-1.7401,-1.7376,-1.7369,-1.736,-1.7344,-1.7343,-1.7323,-1.7317,-1.7303,-1.729,-1.7293,-1.727,-1.7265,-1.7264,-1.7279,-1.728,-1.7281,-1.7284,-1.7279,0,0,0,0,0,-1.7472,-1.7458,-1.7434,-1.7421,-1.7413,-1.7393,-1.7384,-1.7372,-1.7355,-1.7347,-1.733,-1.7313,-1.7298,-1.7288,-1.7272,-1.7258,-1.7253,-1.7254,-1.7255,-1.7256,-1.7255,-1.7248,-1.7249,-1.7244,-1.7244,-1.7244,0,0,-1.7475,-1.7458,-1.745,-1.7424,-1.741,-1.7397,-1.7387,-1.7373,-1.7363,-1.7345,-1.7328,-1.7316,-1.7296,-1.7281,-1.7273,-1.727,-1.7255,-1.7256,-1.7257,-1.7255,-1.7248,-1.7249,-1.7249,-1.7244,-1.7244,-1.7244,0,0,-1.7474,-1.7459,-1.7448,-1.7435,-1.7414,-1.7401,-1.7399,-1.7375,-1.7366,-1.735,-1.7337,-1.7325,-1.7298,-1.7285,-1.7274,-1.7272,-1.7262,-1.7267,-1.7272,-1.7266,-1.7266,-1.7267,-1.7267,-1.7267,-1.7266,-1.7266,-1.7266,0,-1.748,-1.7459,-1.7443,-1.743,-1.742,-1.7404,-1.7393,-1.7381,-1.7356,-1.735,-1.7347,-1.7315,-1.73,-1.7282,-1.7282,-1.7274,-1.7271,-1.7269,-1.7268,-1.7268,-1.7268,-1.7268,-1.7267,-1.7267,-1.7267,-1.7267,-1.7267,0,-1.7469,-1.7455,-1.7448,-1.7426,-1.7415,-1.7403,-1.7385,-1.7376,-1.7367,-1.7354,-1.7339,-1.7321,-1.7302,-1.7297,-1.7287,-1.7279,-1.7278,-1.7271,-1.7266,-1.7269,-1.7269,-1.7269,-1.7268,-1.7268,-1.7268,-1.7268,0,0,-1.7475,-1.7446,-1.7444,-1.7434,-1.7412,-1.7401,-1.7389,-1.7372,-1.7365,-1.7349,-1.7339,-1.7318,-1.7313,-1.7301,-1.729,-1.7285,-1.7285,-1.7279,-1.7278,-1.7282,-1.7277,-1.7282,-1.7282,-1.7279,-1.7279,-1.7279,-1.7279,0,-1.7471,-1.7449,-1.7436,-1.7419,-1.7407,-1.7394,-1.7384,-1.7369,-1.7358,-1.7346,-1.7333,-1.7319,-1.7313,-1.7306,-1.73,-1.7286,-1.7284,-1.7286,-1.727,-1.727,-1.7276,-1.7281,-1.7286,-1.7287,-1.7278,-1.7278,-1.7278,0,-1.7463,-1.7449,-1.7432,-1.7413,-1.7408,-1.7399,-1.7383,-1.7372,-1.7356,-1.7348,-1.7337,-1.7326,-1.7314,-1.731,-1.7293,-1.7295,-1.7288,-1.7281,-1.7281,-1.7278,-1.7274,-1.728,-1.7286,-1.7287,-1.7278,-1.7278,-1.7278,0,-1.747,-1.7447,-1.7435,-1.7427,-1.7404,-1.7399,-1.7389,-1.7373,-1.7364,-1.7351,-1.7345,-1.733,-1.7321,-1.731,-1.7296,-1.7294,-1.7282,-1.7276,-1.7276,-1.7276,-1.7273,-1.7274,-1.7279,-1.7268,-1.7268,-1.7268,-1.7268,0,-1.7467,-1.7458,-1.7438,-1.743,-1.742,-1.7405,-1.7394,-1.7384,-1.737,-1.7361,-1.7348,-1.7339,-1.7321,-1.731,-1.7299,-1.7289,-1.7285,-1.7279,-1.7276,-1.728,-1.7281,-1.7275,-1.7275,-1.7268,-1.7268,-1.7268,-1.7268,0,-1.7473,-1.7459,-1.7445,-1.7426,-1.7421,-1.7414,-1.7398,-1.739,-1.7379,-1.7367,-1.7364,-1.7346,-1.7333,-1.7319,-1.73,-1.7293,-1.7283,-1.7279,-1.7289,-1.7287,-1.7288,-1.7289,-1.729,-1.729,-1.7279,-1.7279,-1.7279,0,-1.7472,-1.7465,-1.7446,-1.7439,-1.743,-1.7419,-1.741,-1.7396,-1.7388,-1.7371,-1.7365,-1.7352,-1.734,-1.7321,-1.7306,-1.7293,-1.7289,-1.729,-1.7286,-1.7292,-1.729,-1.7291,-1.729,-1.7291,-1.7291,-1.7291,-1.7292,0,-1.7472,-1.7467,-1.7455,-1.7442,-1.7433,-1.7422,-1.741,-1.7405,-1.7388,-1.738,-1.7367,-1.7358,-1.7341,-1.7328,-1.7314,-1.7304,-1.7296,-1.7293,-1.7292,-1.7297,-1.7303,-1.7301,-1.7292,-1.7293,-1.7293,-1.7293,-1.7293,-1.7293,-1.7475,-1.7469,-1.7455,-1.7443,-1.7433,-1.7423,-1.7416,-1.7405,-1.7394,-1.738,-1.7372,-1.736,-1.7346,-1.7326,-1.7317,-1.7308,-1.7305,-1.7303,-1.7303,-1.7303,-1.7305,-1.7305,-1.7305,-1.7305,-1.7305,-1.7305,-1.7305,0,-1.7475,-1.7466,-1.7456,-1.7441,-1.7432,-1.7426,-1.7413,-1.7407,-1.7396,-1.7385,-1.7374,-1.7361,-1.7349,-1.7335,-1.7323,-1.7318,-1.7314,-1.7315,-1.7316,-1.7314,-1.7308,-1.731,-1.7319,-1.7319,-1.7319,-1.7319,-1.7319,-1.7319,-1.7474,-1.7464,-1.7457,-1.7442,-1.7433,-1.7422,-1.7416,-1.7407,-1.7398,-1.7384,-1.7374,-1.7366,-1.7354,-1.7341,-1.733,-1.7326,-1.7323,-1.7326,-1.7321,-1.7315,-1.7314,-1.7313,-1.7315,-1.7325,-1.7325,-1.7328,-1.7328,-1.7328]},{"header":{"parameterUnit":"m.s-1","parameterCategory":1,"la1":30.2991,"la2":30.254,"lo1":-89.0895,"lo2":-89.0444,"dy":0.0017,"dx":0.0017,"nx":28,"ny":28,"refTime":"2024-06-13T09:00:00:Z","depth":0,"parameterNumber":3,"parameterNumberName":"V-component_of_WINDS"},"data":[0,0,0,0,0,0,0,0,0,0,0,0,0,0,0,0,0,0,0,0,0,0,0,0,0,0,0,0,0,0,0,0,0,0,0,0,0,0,0,0,0,0,0,0,0,0,0,0,0,0,0,0,0,0,0,0,0,0,0.9961,0.9962,0,1.0017,1.0017,1.0018,1.0054,1.0054,1.0055,1.0055,1.011,1.0111,1.0112,0,0,0,0,0,0,0,0,0,0,0,0,0,0.9885,0.9886,0.9961,0.9962,0.9963,1.0017,1.0017,1.0018,1.0054,1.0054,1.0055,1.0055,1.0109,1.0111,1.0112,0,0,0,0,0,0,0,0,0,0,0,0,0,0.9927,0.9886,0.9961,0.9987,0.999,1.0016,1.0017,1.0018,1.0054,1.0054,1.0055,1.0055,1.0109,1.0111,1.0113,1.0117,0,0,1.0118,1.0119,0,0,0,0,0,0,0,0,0.9924,0.993,0.9983,0.9985,0.9989,1.0029,1.0011,1.0051,1.0054,1.003,1.0055,1.0055,1.0082,1.0087,1.0096,1.012,1.0122,1.0118,1.012,1.012,1.0121,0,0,0,0,0,0,0,0.9921,0.9927,0.9983,0.9983,0.9987,0.9995,1.0002,1.0018,1.0053,1.0032,1.0035,1.0041,1.0084,1.0094,1.0098,1.0123,1.0118,1.012,1.0121,1.0122,1.0151,1.0151,0,0,0,0,0,0,0.9915,0.9925,0.9981,0.9985,0.9957,0.9996,1.0004,1.0016,1.0053,1.0059,1.004,1.0042,1.0091,1.0095,1.01,1.0106,1.012,1.0122,1.0123,1.0152,1.0151,1.0151,0,0,0,0,0,0,0.9913,0.9919,0.9979,0.9956,0.9964,0.9997,1.0011,1.0017,1.0027,1.006,1.0066,1.0044,1.0091,1.0097,1.0112,1.0109,1.0123,1.0125,1.0152,1.0151,1.0151,1.012,0,0,0,0,0,0,0.991,0.9919,0.9921,0.9955,0.9965,0.9991,1.001,1.0017,1.003,1.0033,1.0065,1.0071,1.0092,1.0109,1.0114,1.0112,1.0126,1.0152,1.0152,1.0151,1.0122,1.0119,1.0116,0,0,0,0,0,0.9908,0.991,0.9921,0.9928,0.9969,0.9991,0.9997,1.0021,1.003,1.0032,1.0053,1.007,1.0109,1.0111,1.0116,1.0114,1.0153,1.0152,1.0151,1.0123,1.0119,1.0116,0,0,0,0,0,0,0.9874,0.9915,0.9928,0.9941,0.9963,0.9997,1.0001,1.0017,1.0036,1.0038,1.0067,1.0074,1.0086,1.0102,1.0103,1.012,1.0133,1.0133,1.0109,1.0106,1.0103,1.0099,1.0128,0,0,0,0,0,0.9869,0.9884,0.9918,0.9927,0.9937,0.9967,0.9978,0.9995,1.0018,1.0027,1.0049,1.007,1.0087,1.0098,1.0115,1.0124,1.0131,1.0126,1.0123,1.0121,1.012,1.0125,1.0123,1.0148,1.0148,1.0148,0,0,0.9857,0.9881,0.9889,0.9921,0.994,0.9954,0.9974,0.9989,0.9999,1.0029,1.0044,1.0061,1.0087,1.0099,1.0105,1.0112,1.0115,1.012,1.0118,1.0119,1.0124,1.0122,1.0119,1.0148,1.0148,1.0148,0,0,0.9843,0.9863,0.9872,0.989,0.9917,0.9937,0.9939,0.9971,0.9984,1.0,1.0022,1.0035,1.0064,1.008,1.0093,1.0084,1.0099,1.0089,1.0074,1.0078,1.0076,1.0075,1.007,1.0069,1.0088,1.0088,1.0088,0,0.9824,0.9847,0.9874,0.9887,0.99,0.9928,0.9937,0.9953,0.9984,0.9992,1.0,1.0036,1.0055,1.0071,1.0069,1.0078,1.008,1.0085,1.0075,1.0073,1.0072,1.0068,1.0067,1.0087,1.0087,1.0087,1.0087,0,0.9823,0.9838,0.9842,0.9872,0.9886,0.9896,0.9924,0.9935,0.9951,0.9969,0.9984,1.0008,1.0031,1.0036,1.0052,1.0053,1.0057,1.0069,1.0082,1.0068,1.0064,1.0063,1.0085,1.0085,1.0086,1.0086,0,0,0.9789,0.9834,0.9834,0.9848,0.988,0.9892,0.9903,0.9926,0.9933,0.9954,0.9964,0.9987,0.9998,1.0012,1.003,1.0034,1.0024,1.0046,1.0047,1.004,1.0026,1.0015,1.0013,1.0035,1.0035,1.0035,1.0023,0,0.9779,0.9801,0.9826,0.9839,0.9853,0.9879,0.9889,0.9909,0.9927,0.9941,0.996,0.9976,0.999,0.9999,1.0004,1.0024,1.0021,1.0025,1.0043,1.0043,1.0035,1.0012,1.0001,0.999,1.0022,1.0022,1.0022,0,0.977,0.9789,0.9804,0.9834,0.9841,0.9849,0.9871,0.9884,0.9907,0.9919,0.9935,0.9954,0.9966,0.9978,0.9995,0.9997,1.0006,1.0017,1.0017,1.0018,1.0031,1.0012,0.9987,0.9984,1.0021,1.0021,1.0021,0,0.9742,0.9772,0.9785,0.9796,0.9831,0.9836,0.9851,0.9874,0.9886,0.9904,0.9912,0.9932,0.9942,0.9957,0.998,0.9987,0.9994,1.0008,1.0004,1.0003,1.0003,1.0003,0.9977,1.0011,1.0011,1.0011,1.0011,0,0.9728,0.9736,0.9773,0.978,0.9789,0.9817,0.9825,0.9842,0.9863,0.9873,0.9897,0.9907,0.9938,0.995,0.9969,0.9979,0.9984,0.9994,0.9998,0.9991,0.9989,0.9996,0.9997,1.001,1.001,1.001,1.001,0,0.9698,0.9724,0.9739,0.9771,0.9779,0.9784,0.9811,0.9819,0.9838,0.9851,0.9856,0.9885,0.9901,0.9926,0.995,0.9962,0.9969,0.9977,0.9961,0.9964,0.9957,0.9957,0.9934,0.9932,0.9967,0.9967,0.9967,0,0.9687,0.9693,0.9726,0.9735,0.9749,0.9763,0.9775,0.9802,0.9813,0.9839,0.9843,0.9861,0.9877,0.9902,0.9925,0.9943,0.9951,0.9942,0.9954,0.9945,0.9949,0.9948,0.9948,0.9938,0.9938,0.9938,0.9937,0,0.9663,0.9675,0.9691,0.9711,0.9724,0.9741,0.9759,0.9765,0.9796,0.9807,0.9824,0.9836,0.986,0.9877,0.9898,0.9913,0.9929,0.9933,0.9933,0.9925,0.9915,0.9919,0.9952,0.9934,0.9934,0.9934,0.9934,0.9935,0.9642,0.9648,0.9672,0.9688,0.9705,0.9721,0.9729,0.9749,0.9764,0.9785,0.98,0.9816,0.9838,0.9868,0.9882,0.9894,0.9901,0.9901,0.9901,0.99,0.9896,0.9914,0.9898,0.9898,0.9898,0.9898,0.9898,0,0.9618,0.9635,0.965,0.9674,0.9686,0.9702,0.9722,0.9732,0.9745,0.9764,0.9779,0.9798,0.9815,0.9839,0.9857,0.9862,0.987,0.9865,0.9865,0.9867,0.9889,0.9887,0.9859,0.9859,0.9859,0.9859,0.9859,0.9859,0.9607,0.9619,0.9633,0.9652,0.9669,0.9684,0.9694,0.9709,0.9724,0.9744,0.9758,0.9774,0.9795,0.9814,0.983,0.9836,0.9841,0.9834,0.9843,0.9863,0.9866,0.987,0.9868,0.9835,0.9835,0.982,0.982,0.982]}]]